Weather History for Eugene, OR

Change the Weather History Date:

Tuesday, October 11, 2011

  Actual Average Record
Temperature  
Mean Temperature 60 °F 54 °F  
Max Temperature 66 °F 67 °F 88 °F (1991)
Min Temperature 54 °F 42 °F 28 °F (2008)
Degree Days  
Heating Degree Days 5 11  
Month to date heating degree days 90 103  
Since 1 July heating degree days 214 291  
Cooling Degree Days 0 0  
Month to date cooling degree days 0 0  
Year to date cooling degree days 231 238  
Growing Degree Days 9 (Base 50)    
Moisture  
Dew Point 51 °F    
Average Humidity 66    
Maximum Humidity 86    
Minimum Humidity 45    
Precipitation  
Precipitation 0.21 in 0.08 in 1.64 in (1968)
Month to date precipitation 1.71 0.72  
Year to date precipitation 23.61 28.02  
Snow  
Snow 0.00 in - - ()
Month to date snowfall 0.0  
Since 1 July snowfall 0.0  
Since 1 September snowfall 0.0  
Snow Depth 0.00 in    
Sea Level Pressure  
Sea Level Pressure 29.99 in    
Wind  
Wind Speed 12 mph (SSW)    
Max Wind Speed 24 mph    
Max Gust Speed 29 mph    
Visibility 9 miles    
Events Rain    
T = Trace of Precipitation, MM = Missing Value Source: NWS Daily Summary

Daily Weather History Graph

Daily Weather History Graph

Search for Another Location

Airport:

Trip Planner

Search our weather history database for the weather conditions in past years. The results will help you decide how hot, cold, wet, or windy it might be!

Date:

Astronomy

Oct. 11, 2011 Rise Set
Actual Time 7:22 AM PDT 6:36 PM PDT
Civil Twilight 6:53 AM PDT 7:05 PM PDT
Nautical Twilight 6:19 AM PDT 7:38 PM PDT
Astronomical Twilight 5:46 AM PDT 8:11 PM PDT
Moon 6:08 PM PDT (10/11) 7:07 AM PDT (10/11)
Length of Visible Light 12h 11m
Length of Day
11h 13m
Full, 100% of the Moon is Illuminated
Oct 11
Full
Oct 11
Full
Oct 19
Last Quarter
Oct 26
New
Nov 2
First Quarter

Hourly Weather History & Observations

Time (PDT) Temp. Dew Point Humidity Pressure Visibility Wind Dir Wind Speed Gust Speed Precip Events Conditions
12:54 AM 57.0 °F 52.0 °F 83% 29.78 in 10.0 mi South 12.7 mph - N/A   Overcast
1:33 AM 55.4 °F 53.6 °F 94% 29.80 in 6.0 mi SW 8.1 mph - 0.01 in Rain Rain
1:54 AM 55.0 °F 52.0 °F 89% 29.79 in 10.0 mi South 6.9 mph - 0.02 in   Overcast
2:15 AM 55.4 °F 51.8 °F 88% 29.80 in 10.0 mi South 10.4 mph - N/A   Mostly Cloudy
2:54 AM 55.9 °F 52.0 °F 87% 29.81 in 10.0 mi South 10.4 mph - N/A   Overcast
3:54 AM 57.0 °F 51.1 °F 81% 29.82 in 10.0 mi SSW 12.7 mph - N/A   Overcast
4:54 AM 55.9 °F 50.0 °F 80% 29.83 in 10.0 mi South 10.4 mph - N/A   Overcast
5:54 AM 55.9 °F 51.1 °F 84% 29.86 in 10.0 mi SSW 10.4 mph - 0.00 in Rain Light Rain
6:54 AM 55.0 °F 51.1 °F 86% 29.89 in 10.0 mi SSW 11.5 mph - 0.08 in Rain Light Rain
7:54 AM 54.0 °F 51.1 °F 90% 29.92 in 10.0 mi South 9.2 mph - 0.00 in   Mostly Cloudy
8:33 AM 55.4 °F 51.8 °F 88% 29.94 in 10.0 mi South 9.2 mph - N/A   Mostly Cloudy
8:54 AM 55.0 °F 51.1 °F 86% 29.96 in 10.0 mi South 9.2 mph - N/A   Mostly Cloudy
9:24 AM 57.2 °F 53.6 °F 88% 29.96 in 9.0 mi South 12.7 mph - 0.00 in   Mostly Cloudy
9:54 AM 59.0 °F 53.1 °F 81% 29.98 in 8.0 mi SSW 12.7 mph - 0.00 in   Mostly Cloudy
10:54 AM 61.0 °F 53.1 °F 75% 30.01 in 10.0 mi South 12.7 mph - N/A   Mostly Cloudy
11:54 AM 57.9 °F 54.0 °F 87% 30.03 in 3.0 mi South 17.3 mph - 0.00 in Rain Rain
12:00 PM 57.2 °F 53.6 °F 88% 30.03 in 2.0 mi South 13.8 mph - 0.01 in Rain Rain
12:16 PM 57.2 °F 55.4 °F 94% 30.04 in 8.0 mi South 8.1 mph - 0.11 in Rain Light Rain
12:54 PM 62.6 °F 55.4 °F 77% 30.05 in 10.0 mi SW 17.3 mph 23.0 mph N/A   Mostly Cloudy
1:54 PM 64.9 °F 48.9 °F 56% 30.06 in 10.0 mi SW 19.6 mph 27.6 mph N/A   Scattered Clouds
2:54 PM 64.9 °F 48.9 °F 56% 30.08 in 10.0 mi SW 16.1 mph - N/A   Scattered Clouds
3:54 PM 66.0 °F 45.0 °F 47% 30.09 in 10.0 mi SW 16.1 mph 24.2 mph N/A   Mostly Cloudy
4:54 PM 64.0 °F 46.0 °F 52% 30.10 in 10.0 mi WSW 9.2 mph - N/A   Mostly Cloudy
5:54 PM 61.0 °F 46.9 °F 60% 30.12 in 10.0 mi SW 13.8 mph - N/A   Mostly Cloudy
6:54 PM 57.9 °F 48.0 °F 70% 30.13 in 10.0 mi SW 8.1 mph - N/A   Scattered Clouds
7:54 PM 52.0 °F 46.9 °F 83% 30.14 in 10.0 mi SSW 5.8 mph - N/A   Scattered Clouds
8:54 PM 55.9 °F 48.9 °F 77% 30.16 in 10.0 mi SSE 6.9 mph - N/A   Overcast
9:54 PM 54.0 °F 46.9 °F 77% 30.17 in 10.0 mi Calm Calm - N/A   Scattered Clouds
10:54 PM 53.1 °F 48.9 °F 86% 30.19 in 10.0 mi Calm Calm - N/A   Overcast
11:54 PM 54.0 °F 48.9 °F 83% 30.19 in 10.0 mi SE 5.8 mph - N/A   Overcast